QPF
0.00 0.00 0.00 0.00 0.00 0.00 0.00 0.00 0.00 0.00 0.00 0.00 0.00 0.00 0.00 0.00 0.00 0.00 0.00 0.00 0.00 0.00 0.00 0.00 0.01 0.01 0.01 0.01 0.01 0.01 0.01 0.02 0.01 0.01 0.01 0.01 0.01 0.00 0.01 0.01 0.02 0.02 0.01 0.01
0.00 0.00 0.01 0.01 0.01 0.00 0.00 0.00 0.00 0.00 0.00 0.00 0.00 0.00 0.00 0.00 0.00 0.00 0.00 0.00 0.00 0.00 0.00 0.00 0.00 0.01 0.01 0.01 0.01 0.01 0.01 0.01 0.03 0.02 0.02 0.01 0.01 0.00 0.00 0.00 0.01 0.01 0.01 0.01
0.01 0.00 0.01 0.01 0.01 0.00 0.00 0.00 0.00 0.00 0.00 0.00 0.00 0.00 0.00 0.00 0.00 0.00 0.00 0.00 0.00 0.00 0.00 0.00 0.00 0.01 0.01 0.01 0.01 0.00 0.01 0.01 0.02 0.02 0.02 0.02 0.01 0.01 0.01 0.01 0.01 0.01 0.01 0.01
0.02 0.01 0.01 0.01 0.00 0.00 0.00 0.00 0.00 0.00 0.00 0.00 0.00 0.00 0.00 0.00 0.00 0.00 0.00 0.00 0.00 0.00 0.00 0.00 0.00 0.00 0.01 0.01 0.00 0.00 0.00 0.01 0.01 0.01 0.02 0.02 0.01 0.01 0.01 0.01 0.01 0.01 0.01 0.01
0.02 0.01 0.01 0.00 0.00 0.00 0.00 0.00 0.00 0.00 0.00 0.00 0.00 0.00 0.00 0.00 0.00 0.00 0.00 0.00 0.00 0.00 0.00 0.00 0.00 0.01 0.01 0.01 0.01 0.00 0.00 0.01 0.01 0.01 0.01 0.01 0.01 0.01 0.01 0.01 0.01 0.01 0.01 0.01
0.02 0.01 0.01 0.00 0.00 0.00 0.01 0.01 0.00 0.00 0.00 0.00 0.00 0.00 0.00 0.00 0.00 0.00 0.00 0.00 0.00 0.00 0.00 0.00 0.00 0.00 0.01 0.01 0.01 0.00 0.00 0.01 0.01 0.01 0.01 0.01 0.01 0.02 0.02 0.01 0.01 0.01 0.01 0.01
0.02 0.02 0.01 0.01 0.00 0.01 0.01 0.01 0.00 0.00 0.00 0.00 0.00 0.00 0.00 0.00 0.00 0.00 0.00 0.00 0.00 0.00 0.00 0.00 0.00 0.00 0.00 0.01 0.01 0.01 0.01 0.01 0.01 0.01 0.01 0.01 0.02 0.02 0.02 0.01 0.01 0.01 0.01 0.01
0.02 0.02 0.02 0.01 0.01 0.01 0.01 0.00 0.00 0.00 0.00 0.00 0.00 0.00 0.00 0.00 0.00 0.00 0.00 0.00 0.00 0.00 0.00 0.00 0.00 0.00 0.01 0.01 0.02 0.02 0.01 0.01 0.01 0.01 0.01 0.01 0.02 0.01 0.01 0.02 0.01 0.01 0.01 0.01
0.02 0.01 0.01 0.00 0.01 0.00 0.00 0.00 0.00 0.00 0.00 0.00 0.00 0.00 0.00 0.00 0.00 0.00 0.00 0.00 0.00 0.00 0.00 0.00 0.00 0.00 0.01 0.01 0.01 0.01 0.01 0.01 0.01 0.01 0.01 0.01 0.01 0.01 0.01 0.01 0.01 0.01 0.01 0.01
0.01 0.01 0.00 0.00 0.00 0.00 0.00 0.00 0.00 0.00 0.00 0.00 0.00 0.00 0.00 0.00 0.00 0.00 0.00 0.00 0.00 0.00 0.00 0.00 0.00 0.00 0.00 0.00 0.00 0.00 0.01 0.01 0.01 0.01 0.01 0.01 0.01 0.01 0.01 0.01 0.00 0.00 0.00 0.01
0.01 0.01 0.01 0.01 0.00 0.00 0.00 0.00 0.00 0.00 0.00 0.00 0.00 0.00 0.00 0.00 0.00 0.00 0.00 0.00 0.00 0.00 0.00 0.00 0.00 0.00 0.00 0.00 0.00 0.00 0.01 0.01 0.02 0.02 0.02 0.02 0.01 0.01 0.01 0.01 0.02 0.02 0.01 0.01
0.01 0.01 0.02 0.01 0.01 0.00 0.00 0.00 0.00 0.00 0.00 0.00 0.00 0.00 0.00 0.00 0.00 0.00 0.00 0.00 0.00 0.00 0.00 0.00 0.00 0.00 0.00 0.00 0.00 0.00 0.00 0.01 0.01 0.01 0.01 0.01 0.01 0.01 0.01 0.01 0.02 0.02 0.03 0.02
0.02 0.01 0.01 0.01 0.01 0.01 0.00 0.00 0.01 0.01 0.01 0.01 0.00 0.00 0.00 0.00 0.00 0.00 0.00 0.00 0.00 0.00 0.00 0.00 0.00 0.00 0.00 0.00 0.00 0.00 0.00 0.00 0.01 0.01 0.01 0.01 0.01 0.00 0.01 0.01 0.02 0.02 0.03 0.03
0.02 0.01 0.01 0.01 0.01 0.00 0.00 0.01 0.01 0.01 0.01 0.01 0.01 0.01 0.01 0.00 0.00 0.01 0.01 0.00 0.00 0.00 0.00 0.00 0.00 0.00 0.00 0.00 0.00 0.00 0.00 0.00 0.00 0.00 0.01 0.01 0.01 0.01 0.01 0.01 0.02 0.03 0.04 0.04
0.02 0.01 0.01 0.01 0.01 0.00 0.00 0.00 0.01 0.01 0.02 0.01 0.01 0.02 0.01 0.01 0.01 0.01 0.01 0.01 0.01 0.00 0.00 0.00 0.00 0.00 0.00 0.00 0.00 0.00 0.00 0.00 0.00 0.00 0.01 0.01 0.01 0.01 0.01 0.02 0.04 0.04 0.03 0.02
0.03 0.02 0.02 0.01 0.01 0.01 0.01 0.00 0.01 0.01 0.01 0.01 0.01 0.02 0.02 0.02 0.02 0.02 0.01 0.01 0.01 0.01 0.01 0.01 0.00 0.00 0.00 0.00 0.00 0.00 0.00 0.00 0.01 0.00 0.01 0.01 0.01 0.01 0.01 0.02 0.02 0.03 0.03 0.02
0.04 0.03 0.02 0.02 0.02 0.02 0.01 0.01 0.01 0.01 0.02 0.01 0.01 0.02 0.02 0.03 0.03 0.03 0.03 0.02 0.01 0.01 0.01 0.01 0.01 0.01 0.01 0.01 0.00 0.00 0.00 0.01 0.01 0.01 0.01 0.00 0.00 0.00 0.01 0.01 0.01 0.01 0.02 0.03
0.02 0.02 0.02 0.03 0.02 0.02 0.02 0.01 0.01 0.01 0.02 0.02 0.02 0.03 0.04 0.04 0.03 0.03 0.03 0.02 0.01 0.01 0.01 0.01 0.01 0.02 0.02 0.01 0.01 0.01 0.01 0.01 0.00 0.00 0.01 0.00 0.00 0.00 0.00 0.01 0.01 0.01 0.01 0.02
0.01 0.01 0.02 0.02 0.03 0.02 0.02 0.02 0.02 0.02 0.02 0.02 0.02 0.03 0.05 0.05 0.03 0.03 0.03 0.03 0.02 0.01 0.01 0.01 0.01 0.02 0.02 0.02 0.02 0.01 0.01 0.01 0.01 0.01 0.01 0.00 0.00 0.00 0.00 0.01 0.01 0.01 0.01 0.02
0.01 0.01 0.02 0.02 0.01 0.01 0.02 0.02 0.03 0.03 0.02 0.02 0.03 0.03 0.05 0.06 0.05 0.03 0.04 0.03 0.02 0.02 0.02 0.01 0.01 0.01 0.01 0.02 0.02 0.01 0.01 0.01 0.01 0.01 0.01 0.01 0.00 0.00 0.00 0.01 0.01 0.01 0.02 0.02
0.01 0.01 0.02 0.02 0.01 0.01 0.01 0.01 0.01 0.02 0.02 0.02 0.03 0.04 0.05 0.06 0.05 0.05 0.05 0.04 0.03 0.03 0.02 0.01 0.01 0.01 0.01 0.01 0.02 0.01 0.01 0.01 0.01 0.01 0.01 0.01 0.01 0.01 0.01 0.01 0.01 0.01 0.01 0.01
0.01 0.01 0.01 0.01 0.01 0.01 0.01 0.00 0.01 0.01 0.02 0.02 0.02 0.03 0.04 0.05 0.04 0.04 0.04 0.03 0.03 0.02 0.02 0.02 0.01 0.01 0.01 0.01 0.01 0.01 0.02 0.01 0.01 0.01 0.01 0.01 0.01 0.01 0.01 0.01 0.01 0.01 0.01 0.01
0.00 0.01 0.01 0.01 0.02 0.02 0.01 0.00 0.01 0.01 0.02 0.02 0.02 0.02 0.03 0.04 0.04 0.03 0.03 0.02 0.01 0.01 0.01 0.01 0.01 0.01 0.01 0.01 0.01 0.01 0.02 0.02 0.02 0.02 0.02 0.02 0.02 0.02 0.02 0.01 0.01 0.01 0.01 0.01
0.01 0.01 0.02 0.02 0.01 0.01 0.01 0.01 0.01 0.01 0.01 0.02 0.02 0.03 0.03 0.04 0.04 0.04 0.04 0.02 0.02 0.01 0.01 0.00 0.01 0.01 0.01 0.01 0.01 0.01 0.01 0.01 0.01 0.01 0.02 0.02 0.01 0.01 0.01 0.01 0.02 0.02 0.02 0.01
0.01 0.01 0.02 0.02 0.01 0.01 0.01 0.01 0.01 0.02 0.01 0.01 0.02 0.02 0.02 0.03 0.04 0.04 0.04 0.03 0.03 0.02 0.01 0.01 0.01 0.01 0.01 0.01 0.01 0.00 0.01 0.01 0.01 0.01 0.01 0.01 0.01 0.01 0.01 0.01 0.02 0.02 0.01 0.01
0.01 0.01 0.02 0.02 0.02 0.02 0.02 0.02 0.03 0.03 0.02 0.02 0.01 0.01 0.01 0.01 0.01 0.02 0.03 0.03 0.03 0.03 0.02 0.01 0.01 0.01 0.01 0.01 0.01 0.00 0.00 0.01 0.01 0.01 0.01 0.01 0.01 0.01 0.01 0.01 0.02 0.02 0.02 0.01
0.01 0.01 0.02 0.03 0.04 0.03 0.03 0.02 0.02 0.03 0.02 0.02 0.02 0.01 0.01 0.01 0.01 0.01 0.01 0.02 0.02 0.03 0.03 0.02 0.02 0.01 0.01 0.01 0.01 0.01 0.00 0.00 0.00 0.00 0.01 0.01 0.01 0.01 0.02 0.02 0.02 0.02 0.03 0.03
MSLP
1017.92 1018.22 1018.49 1018.70 1018.83 1018.84 1018.71 1018.43 1018.02 1017.51 1016.93 1016.35 1015.84 1015.44 1015.19 1015.10 1015.16 1015.34 1015.59 1015.85 1016.08 1016.26 1016.36 1016.41 1016.44 1016.47 1016.55 1016.69 1016.89 1017.14 1017.41 1017.64 1017.80 1017.85 1017.78 1017.60 1017.34 1017.03 1016.74 1016.51 1016.37 1016.34 1016.41 1016.55
1017.91 1018.14 1018.30 1018.36 1018.30 1018.12 1017.81 1017.39 1016.89 1016.34 1015.80 1015.33 1014.97 1014.76 1014.72 1014.85 1015.10 1015.44 1015.82 1016.17 1016.47 1016.68 1016.81 1016.87 1016.90 1016.94 1017.02 1017.15 1017.35 1017.58 1017.82 1018.03 1018.17 1018.20 1018.12 1017.93 1017.66 1017.36 1017.07 1016.83 1016.68 1016.62 1016.66 1016.75
1017.98 1018.11 1018.13 1018.02 1017.78 1017.40 1016.92 1016.36 1015.77 1015.19 1014.70 1014.32 1014.11 1014.09 1014.25 1014.57 1015.01 1015.50 1016.00 1016.46 1016.83 1017.10 1017.27 1017.37 1017.43 1017.49 1017.58 1017.72 1017.92 1018.14 1018.36 1018.55 1018.67 1018.68 1018.59 1018.41 1018.15 1017.86 1017.58 1017.34 1017.18 1017.10 1017.09 1017.14
1018.07 1018.09 1017.96 1017.68 1017.26 1016.71 1016.07 1015.40 1014.74 1014.15 1013.70 1013.42 1013.35 1013.49 1013.82 1014.32 1014.91 1015.55 1016.17 1016.71 1017.16 1017.50 1017.73 1017.87 1017.98 1018.08 1018.20 1018.36 1018.55 1018.77 1018.98 1019.16 1019.26 1019.27 1019.18 1019.00 1018.76 1018.50 1018.24 1018.01 1017.85 1017.75 1017.71 1017.71
1018.07 1017.97 1017.71 1017.29 1016.72 1016.03 1015.28 1014.53 1013.83 1013.26 1012.86 1012.67 1012.73 1013.01 1013.49 1014.13 1014.85 1015.60 1016.32 1016.95 1017.47 1017.87 1018.16 1018.37 1018.53 1018.67 1018.82 1019.00 1019.21 1019.43 1019.64 1019.80 1019.89 1019.91 1019.83 1019.67 1019.47 1019.23 1019.00 1018.81 1018.66 1018.56 1018.49 1018.45
1017.88 1017.68 1017.32 1016.79 1016.12 1015.35 1014.54 1013.76 1013.07 1012.53 1012.21 1012.12 1012.29 1012.69 1013.30 1014.04 1014.86 1015.70 1016.49 1017.19 1017.77 1018.23 1018.57 1018.83 1019.05 1019.23 1019.43 1019.63 1019.86 1020.08 1020.28 1020.44 1020.53 1020.55 1020.50 1020.37 1020.21 1020.02 1019.84 1019.68 1019.56 1019.47 1019.41 1019.35
1017.41 1017.16 1016.74 1016.16 1015.45 1014.66 1013.85 1013.09 1012.45 1011.99 1011.75 1011.77 1012.04 1012.55 1013.25 1014.07 1014.96 1015.86 1016.70 1017.44 1018.06 1018.56 1018.96 1019.27 1019.52 1019.76 1019.98 1020.22 1020.45 1020.68 1020.88 1021.04 1021.14 1021.18 1021.15 1021.07 1020.95 1020.83 1020.70 1020.60 1020.52 1020.46 1020.41 1020.35
1016.66 1016.39 1015.96 1015.38 1014.70 1013.95 1013.20 1012.52 1011.97 1011.61 1011.48 1011.60 1011.98 1012.57 1013.33 1014.21 1015.15 1016.07 1016.93 1017.70 1018.35 1018.88 1019.31 1019.66 1019.96 1020.22 1020.48 1020.74 1020.99 1021.22 1021.43 1021.59 1021.71 1021.76 1021.77 1021.73 1021.67 1021.61 1021.55 1021.51 1021.49 1021.47 1021.45 1021.39
1015.66 1015.41 1015.01 1014.50 1013.89 1013.23 1012.60 1012.04 1011.61 1011.38 1011.36 1011.59 1012.05 1012.71 1013.52 1014.43 1015.38 1016.31 1017.18 1017.96 1018.62 1019.17 1019.63 1020.01 1020.34 1020.64 1020.93 1021.20 1021.46 1021.71 1021.92 1022.09 1022.22 1022.30 1022.34 1022.35 1022.35 1022.35 1022.36 1022.38 1022.41 1022.44 1022.45 1022.41
1014.52 1014.31 1013.99 1013.56 1013.07 1012.55 1012.05 1011.63 1011.35 1011.25 1011.35 1011.67 1012.20 1012.91 1013.75 1014.68 1015.63 1016.56 1017.42 1018.19 1018.86 1019.43 1019.91 1020.32 1020.68 1021.01 1021.32 1021.61 1021.89 1022.14 1022.36 1022.55 1022.69 1022.79 1022.87 1022.92 1022.97 1023.03 1023.10 1023.18 1023.26 1023.32 1023.36 1023.34
1013.33 1013.19 1012.96 1012.65 1012.29 1011.92 1011.58 1011.31 1011.17 1011.19 1011.40 1011.80 1012.39 1013.13 1013.99 1014.91 1015.85 1016.77 1017.62 1018.39 1019.07 1019.65 1020.15 1020.59 1020.98 1021.34 1021.67 1021.98 1022.28 1022.54 1022.77 1022.97 1023.12 1023.25 1023.35 1023.44 1023.53 1023.64 1023.75 1023.87 1023.98 1024.08 1024.13 1024.12
1012.20 1012.13 1012.00 1011.82 1011.60 1011.37 1011.18 1011.05 1011.04 1011.16 1011.46 1011.92 1012.54 1013.30 1014.16 1015.08 1016.01 1016.92 1017.77 1018.54 1019.22 1019.83 1020.36 1020.82 1021.25 1021.64 1022.00 1022.33 1022.64 1022.92 1023.16 1023.37 1023.54 1023.68 1023.81 1023.92 1024.04 1024.17 1024.30 1024.44 1024.57 1024.68 1024.73 1024.71
1011.16 1011.16 1011.13 1011.07 1010.98 1010.89 1010.82 1010.82 1010.91 1011.13 1011.48 1011.99 1012.64 1013.41 1014.26 1015.17 1016.09 1017.00 1017.85 1018.63 1019.34 1019.97 1020.53 1021.04 1021.50 1021.92 1022.31 1022.66 1022.99 1023.28 1023.54 1023.76 1023.94 1024.10 1024.24 1024.37 1024.50 1024.63 1024.77 1024.91 1025.04 1025.13 1025.16 1025.13
1010.20 1010.27 1010.33 1010.38 1010.40 1010.43 1010.48 1010.58 1010.76 1011.05 1011.45 1011.99 1012.65 1013.43 1014.28 1015.18 1016.10 1017.01 1017.88 1018.68 1019.42 1020.09 1020.69 1021.24 1021.73 1022.19 1022.60 1022.99 1023.33 1023.64 1023.91 1024.14 1024.33 1024.50 1024.65 1024.78 1024.92 1025.05 1025.18 1025.30 1025.40 1025.46 1025.47 1025.40
1009.25 1009.39 1009.54 1009.69 1009.82 1009.96 1010.11 1010.30 1010.55 1010.89 1011.34 1011.90 1012.58 1013.36 1014.21 1015.12 1016.05 1016.97 1017.87 1018.70 1019.48 1020.19 1020.83 1021.42 1021.95 1022.44 1022.88 1023.29 1023.65 1023.97 1024.26 1024.50 1024.71 1024.89 1025.04 1025.17 1025.30 1025.42 1025.52 1025.61 1025.68 1025.71 1025.68 1025.59
1008.23 1008.45 1008.68 1008.93 1009.17 1009.40 1009.65 1009.92 1010.24 1010.64 1011.12 1011.71 1012.41 1013.21 1014.08 1015.00 1015.95 1016.90 1017.83 1018.70 1019.52 1020.27 1020.96 1021.58 1022.15 1022.67 1023.14 1023.56 1023.94 1024.28 1024.58 1024.84 1025.06 1025.24 1025.40 1025.53 1025.65 1025.75 1025.83 1025.89 1025.92 1025.91 1025.85 1025.73
1007.09 1007.38 1007.71 1008.05 1008.39 1008.73 1009.06 1009.42 1009.81 1010.27 1010.80 1011.43 1012.16 1012.98 1013.88 1014.83 1015.81 1016.80 1017.76 1018.68 1019.54 1020.33 1021.06 1021.72 1022.31 1022.85 1023.34 1023.78 1024.18 1024.54 1024.85 1025.12 1025.36 1025.56 1025.73 1025.87 1025.98 1026.06 1026.12 1026.15 1026.15 1026.11 1026.02 1025.88
1005.83 1006.20 1006.62 1007.06 1007.50 1007.93 1008.36 1008.80 1009.27 1009.79 1010.38 1011.06 1011.83 1012.69 1013.63 1014.62 1015.64 1016.66 1017.66 1018.62 1019.52 1020.35 1021.11 1021.80 1022.42 1022.98 1023.49 1023.95 1024.36 1024.73 1025.07 1025.36 1025.62 1025.84 1026.02 1026.16 1026.27 1026.35 1026.40 1026.41 1026.38 1026.31 1026.20 1026.05
1004.50 1004.95 1005.46 1005.98 1006.51 1007.04 1007.55 1008.08 1008.62 1009.21 1009.87 1010.61 1011.43 1012.34 1013.32 1014.35 1015.41 1016.48 1017.52 1018.52 1019.46 1020.32 1021.11 1021.82 1022.46 1023.05 1023.57 1024.04 1024.47 1024.87 1025.22 1025.54 1025.82 1026.06 1026.26 1026.42 1026.54 1026.62 1026.66 1026.65 1026.61 1026.53 1026.41 1026.26
1003.23 1003.75 1004.32 1004.92 1005.52 1006.11 1006.71 1007.30 1007.92 1008.58 1009.30 1010.10 1010.98 1011.94 1012.96 1014.04 1015.14 1016.25 1017.33 1018.36 1019.33 1020.23 1021.04 1021.78 1022.44 1023.04 1023.59 1024.08 1024.53 1024.95 1025.33 1025.67 1025.98 1026.25 1026.47 1026.65 1026.78 1026.86 1026.90 1026.90 1026.85 1026.76 1026.64 1026.50
1002.15 1002.70 1003.31 1003.95 1004.60 1005.25 1005.89 1006.54 1007.22 1007.94 1008.72 1009.56 1010.50 1011.50 1012.57 1013.69 1014.83 1015.97 1017.08 1018.15 1019.15 1020.07 1020.91 1021.68 1022.37 1022.99 1023.56 1024.07 1024.55 1024.99 1025.40 1025.77 1026.11 1026.40 1026.65 1026.84 1026.99 1027.08 1027.13 1027.12 1027.08 1026.99 1026.88 1026.73
1001.36 1001.92 1002.54 1003.19 1003.85 1004.52 1005.19 1005.87 1006.58 1007.34 1008.16 1009.05 1010.02 1011.07 1012.17 1013.33 1014.50 1015.67 1016.81 1017.90 1018.93 1019.88 1020.75 1021.54 1022.26 1022.91 1023.51 1024.05 1024.56 1025.03 1025.46 1025.86 1026.22 1026.54 1026.80 1027.02 1027.17 1027.28 1027.33 1027.33 1027.29 1027.21 1027.10 1026.96
1000.93 1001.47 1002.06 1002.68 1003.32 1003.97 1004.64 1005.33 1006.05 1006.83 1007.68 1008.60 1009.60 1010.67 1011.81 1012.98 1014.18 1015.37 1016.53 1017.65 1018.70 1019.68 1020.58 1021.40 1022.15 1022.83 1023.46 1024.04 1024.58 1025.07 1025.53 1025.96 1026.33 1026.67 1026.95 1027.17 1027.34 1027.45 1027.51 1027.52 1027.48 1027.40 1027.29 1027.15
1000.84 1001.32 1001.86 1002.43 1003.02 1003.64 1004.28 1004.95 1005.68 1006.46 1007.32 1008.25 1009.27 1010.36 1011.51 1012.70 1013.91 1015.12 1016.30 1017.43 1018.50 1019.50 1020.43 1021.28 1022.06 1022.78 1023.44 1024.05 1024.62 1025.14 1025.62 1026.06 1026.45 1026.79 1027.08 1027.31 1027.48 1027.60 1027.66 1027.67 1027.64 1027.56 1027.46 1027.32
1001.00 1001.42 1001.88 1002.39 1002.92 1003.49 1004.10 1004.75 1005.46 1006.24 1007.10 1008.04 1009.07 1010.16 1011.32 1012.52 1013.73 1014.94 1016.13 1017.27 1018.36 1019.38 1020.32 1021.20 1022.01 1022.76 1023.45 1024.09 1024.68 1025.22 1025.72 1026.17 1026.57 1026.92 1027.21 1027.44 1027.61 1027.72 1027.78 1027.80 1027.77 1027.70 1027.59 1027.45
1001.29 1001.64 1002.04 1002.48 1002.96 1003.48 1004.05 1004.68 1005.38 1006.16 1007.02 1007.96 1008.99 1010.09 1011.25 1012.44 1013.65 1014.86 1016.04 1017.19 1018.28 1019.31 1020.27 1021.17 1022.00 1022.78 1023.49 1024.15 1024.76 1025.32 1025.83 1026.28 1026.68 1027.03 1027.31 1027.54 1027.71 1027.82 1027.88 1027.89 1027.86 1027.80 1027.69 1027.55
1001.56 1001.86 1002.21 1002.60 1003.05 1003.54 1004.10 1004.72 1005.41 1006.19 1007.06 1008.01 1009.04 1010.13 1011.28 1012.47 1013.66 1014.86 1016.03 1017.17 1018.25 1019.28 1020.25 1021.16 1022.01 1022.80 1023.53 1024.20 1024.83 1025.40 1025.91 1026.37 1026.77 1027.11 1027.39 1027.61 1027.77 1027.88 1027.94 1027.96 1027.93 1027.87 1027.76 1027.62
Thickness
5686 5689 5688 5687 5688 5690 5691 5696 5694 5701 5706 5714 5719 5721 5724 5725 5726 5725 5725 5725 5725 5723 5722 5720 5719 5717 5716 5713 5711 5709 5706 5703 5700 5699 5696 5695 5693 5693 5692 5691 5691 5689 5688 5686
5676 5682 5682 5680 5686 5688 5689 5693 5696 5699 5703 5717 5721 5722 5721 5723 5722 5721 5722 5723 5724 5723 5722 5720 5719 5716 5713 5711 5710 5708 5705 5701 5699 5697 5694 5691 5690 5689 5688 5686 5686 5685 5684 5683
5666 5673 5672 5671 5687 5688 5689 5695 5696 5695 5705 5712 5711 5713 5716 5720 5720 5720 5721 5721 5721 5722 5722 5721 5721 5717 5713 5711 5709 5706 5703 5700 5696 5695 5691 5689 5688 5686 5684 5683 5682 5681 5681 5679
5661 5661 5651 5683 5696 5694 5690 5694 5699 5700 5705 5707 5709 5713 5717 5719 5720 5720 5721 5720 5720 5721 5722 5722 5721 5718 5715 5711 5708 5704 5702 5698 5695 5692 5690 5687 5685 5684 5682 5682 5679 5677 5677 5676
5654 5654 5664 5680 5686 5686 5684 5687 5696 5697 5700 5703 5708 5710 5713 5718 5719 5720 5720 5721 5720 5721 5721 5720 5719 5717 5713 5709 5706 5703 5699 5697 5694 5691 5688 5685 5683 5681 5680 5679 5676 5675 5673 5671
5650 5647 5652 5674 5684 5688 5683 5679 5696 5696 5696 5697 5699 5698 5707 5715 5716 5717 5717 5718 5717 5717 5718 5717 5716 5715 5711 5707 5704 5701 5698 5696 5694 5690 5687 5684 5681 5679 5677 5676 5674 5672 5670 5669
5645 5647 5660 5675 5678 5678 5665 5677 5691 5693 5693 5693 5695 5701 5708 5711 5711 5712 5712 5713 5713 5713 5712 5712 5713 5711 5708 5705 5702 5700 5697 5695 5691 5688 5685 5683 5679 5676 5674 5672 5670 5669 5667 5666
5643 5642 5651 5669 5669 5667 5673 5684 5686 5689 5691 5692 5695 5698 5701 5703 5704 5705 5706 5707 5708 5707 5707 5708 5708 5707 5704 5701 5700 5697 5694 5691 5688 5686 5683 5680 5676 5673 5671 5668 5666 5665 5663 5661
5647 5651 5662 5666 5668 5672 5675 5677 5681 5684 5688 5689 5690 5692 5695 5697 5699 5700 5701 5702 5703 5703 5702 5702 5703 5703 5700 5698 5696 5693 5689 5686 5684 5682 5679 5677 5673 5670 5667 5665 5663 5661 5659 5657
5642 5650 5655 5658 5662 5665 5669 5671 5676 5680 5683 5685 5686 5689 5690 5692 5694 5695 5696 5696 5697 5698 5697 5697 5697 5697 5696 5695 5693 5690 5686 5683 5681 5678 5675 5673 5669 5667 5664 5662 5660 5658 5656 5654
5638 5646 5648 5651 5655 5659 5662 5666 5669 5673 5677 5680 5682 5684 5686 5687 5689 5690 5690 5691 5692 5693 5693 5693 5692 5692 5691 5690 5689 5686 5684 5680 5678 5675 5672 5668 5666 5664 5662 5660 5658 5654 5652 5651
5634 5642 5644 5647 5652 5653 5655 5658 5662 5666 5669 5673 5676 5678 5680 5681 5683 5684 5685 5685 5686 5687 5687 5688 5688 5687 5686 5685 5684 5682 5680 5677 5674 5670 5667 5664 5661 5657 5654 5652 5649 5646 5644 5643
5633 5637 5640 5643 5645 5647 5649 5653 5657 5660 5663 5665 5669 5672 5673 5675 5676 5678 5679 5679 5680 5681 5681 5682 5682 5682 5681 5680 5679 5678 5675 5672 5669 5666 5662 5659 5657 5654 5650 5645 5641 5639 5637 5634
5626 5628 5630 5635 5637 5640 5644 5647 5651 5654 5656 5659 5661 5664 5666 5667 5669 5670 5671 5672 5673 5674 5674 5675 5675 5675 5675 5674 5672 5671 5669 5665 5663 5660 5657 5655 5652 5649 5647 5643 5639 5636 5631 5627
5618 5621 5625 5629 5631 5634 5637 5640 5642 5644 5646 5649 5652 5654 5657 5659 5660 5662 5663 5664 5664 5665 5666 5668 5667 5667 5667 5667 5665 5664 5662 5659 5657 5654 5652 5649 5647 5644 5641 5638 5635 5632 5628 5623
5612 5615 5617 5619 5622 5626 5629 5631 5634 5636 5638 5640 5642 5645 5648 5650 5652 5652 5653 5654 5655 5656 5657 5659 5659 5659 5659 5658 5657 5655 5654 5650 5648 5647 5645 5643 5640 5638 5635 5632 5629 5626 5623 5619
5604 5605 5608 5610 5614 5617 5620 5623 5625 5627 5629 5631 5632 5635 5637 5639 5641 5642 5643 5645 5646 5647 5648 5649 5650 5650 5650 5649 5648 5647 5646 5643 5639 5639 5638 5636 5633 5631 5628 5625 5622 5620 5616 5612
5597 5601 5603 5605 5606 5609 5611 5614 5616 5618 5619 5621 5622 5624 5626 5628 5629 5631 5632 5634 5635 5636 5638 5638 5640 5640 5639 5639 5638 5638 5637 5636 5633 5632 5630 5628 5625 5623 5621 5618 5615 5611 5608 5603
5588 5591 5593 5597 5599 5601 5603 5605 5607 5609 5610 5611 5612 5614 5615 5617 5618 5619 5621 5622 5623 5624 5626 5627 5627 5629 5629 5628 5627 5627 5627 5626 5624 5622 5621 5617 5615 5614 5612 5609 5606 5603 5600 5596
5579 5582 5585 5588 5590 5592 5594 5596 5598 5600 5601 5602 5603 5604 5604 5605 5606 5607 5609 5610 5611 5613 5615 5616 5617 5618 5618 5617 5616 5618 5617 5616 5614 5612 5610 5608 5606 5605 5603 5600 5597 5594 5591 5588
5570 5573 5576 5578 5580 5583 5585 5588 5590 5590 5591 5592 5593 5594 5594 5595 5595 5596 5597 5598 5599 5600 5601 5602 5605 5605 5606 5606 5604 5606 5606 5605 5603 5601 5599 5598 5596 5594 5592 5590 5587 5584 5581 5578
5562 5564 5567 5569 5571 5573 5576 5579 5580 5580 5581 5581 5582 5583 5583 5583 5584 5584 5585 5585 5587 5586 5588 5591 5592 5592 5593 5593 5594 5594 5594 5593 5592 5590 5589 5587 5586 5584 5582 5580 5577 5574 5571 5567
5553 5556 5558 5560 5563 5565 5566 5568 5569 5570 5570 5571 5571 5571 5572 5572 5573 5574 5574 5574 5575 5575 5577 5579 5579 5579 5579 5581 5582 5582 5582 5581 5581 5579 5578 5577 5575 5574 5572 5569 5566 5563 5560 5556
5544 5546 5548 5550 5552 5554 5556 5557 5558 5560 5561 5562 5562 5562 5562 5562 5562 5562 5562 5562 5562 5563 5566 5566 5566 5567 5568 5570 5570 5570 5570 5569 5568 5567 5567 5565 5564 5562 5559 5557 5555 5552 5549 5545
5533 5535 5537 5539 5542 5544 5545 5546 5547 5549 5550 5551 5551 5551 5551 5552 5552 5552 5551 5552 5551 5552 5554 5555 5555 5556 5558 5559 5559 5558 5558 5557 5556 5555 5554 5553 5551 5550 5547 5545 5543 5540 5537 5534
5523 5524 5526 5528 5531 5532 5534 5536 5538 5539 5540 5540 5540 5541 5541 5541 5540 5540 5541 5541 5541 5541 5543 5544 5544 5545 5546 5546 5546 5546 5545 5544 5543 5542 5541 5540 5538 5537 5535 5533 5530 5528 5526 5523
5512 5513 5515 5517 5519 5521 5523 5525 5527 5528 5529 5530 5530 5530 5530 5530 5530 5530 5531 5531 5531 5531 5532 5532 5532 5533 5533 5533 5533 5533 5533 5532 5531 5530 5529 5527 5526 5524 5522 5520 5518 5516 5513 5511